Regional Weather Roundup
Issued by NWS Sterling, VA

Home | Current Version | Previous Version | Graphics & Text | Print | Product List | Glossary On
Versions: 1 2 3 4 5 6 7 8 9 10 11 12 13 14 15 16 17 18 19 20 21 22 23 24 25 26 27
000
ASUS41 KLWX 190411
RWRLWX

REGIONAL WEATHER ROUNDUP
NATIONAL WEATHER SERVICE BALTIMORE MD/WASHINGTON DC
1200 AM EDT THU APR 19 2018

Note: "FAIR" indicates few or no clouds below 12,000 feet
with no significant weather and/or obstructions to visibility.
 TC=TEMPERATURE CELSIUS

 * =Non NWS site. Station does not report precipitation (e.g. rain,
    snow, etc.), thunder, or fog.

DCZ001-MDZ009-015-VAZ040>042-051-053>054-190500-
WASHINGTON METRO

CITY           SKY/WX    TMP DP  RH WIND       PRES   REMARKS
WASHINGTON NAT FAIR      51  39  63 CALM      29.69F
DULLES         FAIR      50  40  68 CALM      29.69F
ANDREWS AFB    FAIR      48  39  72 E5        29.68F
FT BELVOIR     FAIR      49  40  71 CALM      29.68F
QUANTICO       FAIR      53  45  74 E8        29.69F
COLLEGE PARK*  MOCLDY    47  39  75 CALM      29.69F
LEESBURG*      FAIR      52  41  66 E3        29.70F
MANASSAS*      FAIR      51  39  63 NE3       29.69F
GAITHERSBURG*  FAIR      49  37  63 E3        29.70F

$$

MDZ006>007-011-014-190500-
BALTIMORE METRO

CITY           SKY/WX    TMP DP  RH WIND       PRES   REMARKS
BWI AIRPORT    MOCLDY    51  42  71 E3        29.70F
MD SCIENCE CTR   N/A     54  42  64 MISG      29.71F
MARTIN STATE   CLOUDY    50  43  76 CALM      29.72F
ANNAPOLIS      FAIR      54  47  77 SE3       29.70F
FORT MEADE*    MOCLDY    45  39  81 CALM      29.72F

$$

MDZ012-015-019>023-190500-
MARYLAND EASTERN SHORE

CITY           SKY/WX    TMP DP  RH WIND       PRES   REMARKS
OCEAN CITY     FAIR      48  45  89 SE6       29.74F
SALISBURY      FAIR      46  42  86 E6        29.72F
BAY BRIDGE AP* FAIR      52  39  62 SE6       29.70F
CAMBRIDGE*     PTCLDY    48  41  76 SE6       29.71F
EASTON*        FAIR      50  41  70 S6        29.74F

$$

MDZ017>025-190500-
SOUTHERN MARYLAND

CITY           SKY/WX    TMP DP  RH WIND       PRES   REMARKS
PATUXENT RIVER FAIR      53  45  74 SE14      29.69F
ST INIGOES     FAIR      50  45  83 E13       29.68F
LEONARDTOWN*   FAIR      50  41  71 E6        29.70F

$$

MDZ003>005-190500-
NORTH CENTRAL MARYLAND

CITY           SKY/WX    TMP DP  RH WIND       PRES   REMARKS
FREDERICK*     FAIR      46  36  66 CALM      29.72F
HAGERSTOWN APT CLOUDY    52  38  58 NE3       29.67F
WESTMINSTER*   FAIR      50  37  62 CALM      29.69F

$$

MDZ501>502-190500-
WESTERN MARYLAND

CITY           SKY/WX    TMP DP  RH WIND       PRES   REMARKS
OAKLAND*       FAIR      50  41  71 S8        29.63F
CUMBERLAND*    FAIR      52  34  50 W3        29.68F

$$

VAZ025>031-190500-
SHENANDOAH VALLEY

CITY           SKY/WX    TMP DP  RH WIND       PRES   REMARKS
WINCHESTER*    CLOUDY    48  37  66 CALM      29.68F
FRONT ROYAL*   MOCLDY    54  37  54 CALM      29.64F
LURAY*         FAIR      52  41  66 N3        29.63F
NEW MARKET*    MOCLDY    50  39  64 CALM      29.63F
STAUNTON*      FAIR      50  40  68 CALM      29.66F
WAYNESBORO*    FAIR      56  44  65 N5        29.64F

$$

WVZ021-048>050-054>055-190500-
EASTERN WEST VIRGINIA PANHANDLE

CITY           SKY/WX    TMP DP  RH WIND       PRES   REMARKS
MARTINSBURG    MOCLDY    51  38  60 E5        29.66F
PETERSBURG*    MOCLDY    46  43  89 CALM      29.65F

$$

VAZ036>039-050-190500-
CENTRAL FOOTHILLS

CITY           SKY/WX    TMP DP  RH WIND       PRES   REMARKS
CHARLOTTESVILL FAIR      57  40  52 NE7       29.66F
CULPEPER*      FAIR      49  40  70 CALM      29.69F
ORANGE*        FAIR      50  41  71 CALM      29.67F
GORDONSVILLE*  FAIR      51  42  71 NE5       29.66F
WARRENTON*     FAIR      47  38  71 CALM      29.68F

$$

VAZ055>057-190500-
NORTH AND CENTRAL PIEDMONT

CITY           SKY/WX    TMP DP  RH WIND       PRES   REMARKS
FREDERICKSBRG* FAIR      51  46  84 E3        29.67F
STAFFORD*      FAIR      51  48  91 E8        29.71F

$$

NCZ024-NYZ072-PAZ021-071-VAZ022-071-190500-
OTHER REGIONAL OBSERVATIONS

CITY           SKY/WX    TMP DP  RH WIND       PRES   REMARKS
NEW YORK CITY  CLOUDY    49  31  49 VRB3      29.78F
PHILADELPHIA   CLOUDY    50  35  56 E5        29.74F
PITTSBURGH     RAIN      45  41  86 N6        29.70R
ROANOKE        FAIR      73  47  39 SW5       29.69S
RICHMOND       FAIR      50  49  96 SE7       29.65F
RALEIGH        FAIR      72  44  36 SW17      29.72F

$$

ANZ530>537-190500-
MARINE OBSERVATIONS

STATION/POSITION TIME  TEMP    WIND        PRES
                       AIR SEA DIR/SP/G
                 (UTC) (F)     (DEG/KT/KT) (MB)
THOMAS PT LIGHT  0400   52 51  130/  7/  7 1006.6F
BALT KEY BRIDGE  0348   52      70/  3/  4 1006.0F
COVE POINT       0348   50     160/ 15/ 18 1006.2F
LEWISETTA        0348   50 55  140/ 11/ 13 1005.3F
SOLOMONS ISLAND  0348   51 53  120/ 10/ 13 1005.0F
PINEY POINT      0348          140/ 15/ 17   N/A

$$





USA.gov is the U.S. government's official web portal to all federal, state and local government web resources and services.